| time (UTC) | temp F | wind direction | speed knots | gust knots | rain 1hr in | rain 24hr in | rain mn in | humidity % | barometer mb |
| 20260906115501 | 75 | 180 | 0.0 | 0.0 | 0.00 | 0.00 | 0.00 | 93 | 991.5 |
| 20260906115001 | 75 | 281 | 0.0 | 0.0 | 0.00 | 0.00 | 0.00 | 92 | 991.5 |
| 20260906114501 | 75 | 324 | 0.0 | 0.0 | 0.00 | 0.00 | 0.00 | 92 | 991.5 |
| 20260906114001 | 75 | 282 | 0.0 | 0.0 | 0.00 | 0.00 | 0.00 | 91 | 991.5 |
| 20260906113501 | 76 | 262 | 0.0 | 0.0 | 0.00 | 0.00 | 0.00 | 91 | 991.5 |
| 20260906113001 | 76 | 283 | 0.0 | 0.0 | 0.00 | 0.00 | 0.00 | 91 | 991.5 |
| 20260906112501 | 76 | 283 | 0.0 | 0.0 | 0.00 | 0.00 | 0.00 | 90 | 991.5 |
| 20260906112000 | 76 | 282 | 0.0 | 0.0 | 0.00 | 0.00 | 0.00 | 89 | 991.5 |
| 20260906111501 | 77 | 23 | 0.0 | 0.0 | 0.00 | 0.00 | 0.00 | 89 | 991.5 |
| 20260906111000 | 77 | 273 | 0.0 | 0.0 | 0.00 | 0.00 | 0.00 | 88 | 991.5 |
| 20260906110500 | 77 | 265 | 0.0 | 0.0 | 0.00 | 0.00 | 0.00 | 87 | 991.5 |
| 20260906110001 | 77 | 256 | 0.0 | 0.0 | 0.00 | 0.00 | 0.00 | 87 | 991.5 |
| 20260906105501 | 77 | 277 | 0.0 | 0.0 | 0.00 | 0.00 | 0.00 | 86 | 991.5 |
| 20260906105000 | 77 | 282 | 0.0 | 0.0 | 0.00 | 0.00 | 0.00 | 86 | 991.5 |
| 20260906104500 | 78 | 270 | 0.0 | 5.2 | 0.00 | 0.00 | 0.00 | 85 | 991.5 |
| 20260906104001 | 77 | 227 | 0.0 | 0.0 | 0.00 | 0.00 | 0.00 | 88 | 991.9 |
| 20260906103501 | 77 | 289 | 0.0 | 6.1 | 0.00 | 0.00 | 0.00 | 88 | 991.5 |
| 20260906103000 | 77 | 276 | 0.0 | 2.6 | 0.00 | 0.00 | 0.00 | 91 | 991.9 |
| 20260906102501 | 77 | 254 | 0.0 | 2.6 | 0.00 | 0.00 | 0.00 | 94 | 991.5 |
| 20260906102001 | 77 | 289 | 0.0 | 0.0 | 0.00 | 0.00 | 0.00 | 95 | 991.5 |
| 20260906101501 | 77 | 225 | 0.0 | 0.0 | 0.00 | 0.00 | 0.00 | 95 | 991.5 |
| 20260906101001 | 77 | 279 | 0.0 | 0.0 | 0.00 | 0.00 | 0.00 | 95 | 991.5 |
| 20260906100501 | 78 | 273 | 0.0 | 0.0 | 0.00 | 0.00 | 0.00 | 95 | 991.2 |
| 20260906100001 | 78 | 214 | 0.0 | 0.0 | 0.00 | 0.00 | 0.00 | 95 | 990.9 |
| 20260906095501 | 77 | 71 | 0.0 | 0.0 | 0.00 | 0.00 | 0.00 | 95 | 990.9 |
| 20260906095000 | 78 | 283 | 0.0 | 0.0 | 0.00 | 0.00 | 0.00 | 95 | 990.9 |
| 20260906094501 | 77 | 284 | 0.0 | 0.0 | 0.00 | 0.00 | 0.00 | 95 | 990.9 |
| 20260906094000 | 77 | 260 | 0.0 | 0.0 | 0.00 | 0.00 | 0.00 | 95 | 990.9 |
| 20260906093501 | 78 | 265 | 0.0 | 0.0 | 0.00 | 0.00 | 0.00 | 94 | 990.9 |
| 20260906093001 | 78 | 268 | 0.0 | 0.0 | 0.00 | 0.00 | 0.00 | 94 | 990.9 |
| 20260906092501 | 78 | 266 | 0.0 | 0.0 | 0.00 | 0.00 | 0.00 | 94 | 990.9 |
| 20260906092000 | 78 | 262 | 0.0 | 0.0 | 0.00 | 0.00 | 0.00 | 94 | 990.9 |
| 20260906091501 | 78 | 240 | 0.0 | 0.0 | 0.00 | 0.00 | 0.00 | 94 | 990.9 |
| 20260906091000 | 78 | 275 | 0.0 | 0.0 | 0.00 | 0.00 | 0.00 | 94 | 990.9 |
| 20260906090501 | 78 | 264 | 0.0 | 0.0 | 0.00 | 0.00 | 0.00 | 94 | 990.5 |
| 20260906090001 | 78 | 251 | 0.0 | 0.0 | 0.00 | 0.00 | 0.00 | 95 | 990.9 |
| 20260906085500 | 77 | 217 | 0.0 | 0.9 | 0.00 | 0.00 | 0.00 | 95 | 990.5 |
| 20260906085001 | 77 | 270 | 0.0 | 0.0 | 0.00 | 0.00 | 0.00 | 95 | 990.5 |
| 20260906084501 | 77 | 264 | 0.0 | 0.0 | 0.00 | 0.00 | 0.00 | 96 | 990.5 |
| 20260906084001 | 77 | 197 | 0.0 | 0.0 | 0.00 | 0.00 | 0.00 | 96 | 990.9 |
| 20260906083501 | 77 | 279 | 0.0 | 0.0 | 0.00 | 0.00 | 0.00 | 96 | 990.9 |
| 20260906083000 | 77 | 275 | 0.0 | 0.0 | 0.00 | 0.00 | 0.00 | 97 | 990.9 |
| 20260906082501 | 77 | 242 | 0.0 | 1.7 | 0.00 | 0.00 | 0.00 | 97 | 990.9 |
| 20260906082000 | 77 | 164 | 1.7 | 1.7 | 0.00 | 0.00 | 0.00 | 97 | 991.2 |
| 20260906081501 | 77 | 287 | 0.0 | 2.6 | 0.00 | 0.00 | 0.00 | 97 | 991.2 |
| 20260906081000 | 77 | 292 | 0.0 | 0.0 | 0.00 | 0.00 | 0.00 | 96 | 991.2 |
| 20260906080501 | 77 | 217 | 0.0 | 0.9 | 0.00 | 0.00 | 0.00 | 96 | 990.9 |
| 20260906080001 | 76 | 286 | 0.0 | 0.0 | 0.00 | 0.00 | 0.00 | 97 | 990.9 |
| 20260906075501 | 76 | 271 | 0.0 | 0.0 | 0.00 | 0.00 | 0.00 | 97 | 990.9 |
| 20260906075000 | 76 | 269 | 0.0 | 0.0 | 0.00 | 0.00 | 0.00 | 97 | 990.9 |
| 20260906074500 | 76 | 267 | 0.0 | 0.0 | 0.00 | 0.00 | 0.00 | 96 | 990.9 |
| 20260906074001 | 76 | 280 | 0.0 | 0.0 | 0.00 | 0.00 | 0.00 | 96 | 990.9 |
| 20260906073501 | 76 | 243 | 0.0 | 0.0 | 0.00 | 0.00 | 0.00 | 96 | 990.9 |
| 20260906073001 | 76 | 271 | 0.0 | 0.0 | 0.00 | 0.00 | 0.00 | 97 | 990.9 |
| 20260906072500 | 76 | 297 | 0.0 | 0.0 | 0.00 | 0.00 | 0.00 | 97 | 990.9 |
| 20260906072001 | 76 | 298 | 0.0 | 0.0 | 0.00 | 0.00 | 0.00 | 97 | 990.9 |
| 20260906071500 | 76 | 267 | 0.0 | 0.0 | 0.00 | 0.00 | 0.00 | 97 | 990.9 |
| 20260906071000 | 76 | 276 | 0.0 | 0.0 | 0.00 | 0.00 | 0.00 | 97 | 990.9 |
| 20260906070500 | 76 | 273 | 0.0 | 0.0 | 0.00 | 0.00 | 0.00 | 97 | 990.5 |
| 20260906070001 | 76 | 270 | 0.0 | 0.0 | 0.00 | 0.00 | 0.00 | 97 | 990.9 |
| 20260906065501 | 75 | 293 | 0.0 | 0.0 | 0.00 | 0.00 | 0.00 | 97 | 990.9 |
| 20260906065001 | 75 | 144 | 0.0 | 0.0 | 0.00 | 0.00 | 0.00 | 97 | 990.9 |
| 20260906064500 | 75 | 290 | 0.0 | 0.0 | 0.00 | 0.00 | 0.00 | 97 | 990.9 |
| 20260906064001 | 75 | 291 | 0.0 | 0.0 | 0.00 | 0.00 | 0.00 | 97 | 991.2 |
| 20260906063501 | 75 | 281 | 0.0 | 0.0 | 0.00 | 0.00 | 0.00 | 97 | 991.2 |
| 20260906063001 | 75 | 352 | 0.0 | 0.0 | 0.00 | 0.00 | 0.00 | 97 | 991.2 |
| 20260906062501 | 75 | 277 | 0.0 | 0.0 | 0.00 | 0.00 | 0.00 | 97 | 991.2 |
| 20260906062000 | 75 | 283 | 0.0 | 0.0 | 0.00 | 0.00 | 0.00 | 97 | 991.2 |
| 20260906061500 | 75 | 289 | 0.0 | 0.0 | 0.00 | 0.00 | 0.00 | 96 | 991.2 |
| 20260906061000 | 75 | 287 | 0.0 | 0.0 | 0.00 | 0.00 | 0.00 | 96 | 991.2 |
| 20260906060501 | 75 | 278 | 0.0 | 0.0 | 0.00 | 0.00 | 0.00 | 96 | 991.5 |
| 20260906060000 | 76 | 280 | 0.0 | 0.0 | 0.00 | 0.00 | 0.00 | 96 | 991.5 |
| 20260906055501 | 76 | 279 | 0.0 | 0.0 | 0.00 | 0.00 | 0.00 | 96 | 991.5 |
| 20260906055003 | 76 | 287 | 0.0 | 0.0 | 0.00 | 0.00 | 0.00 | 96 | 991.5 |
| 20260906054500 | 76 | 280 | 0.0 | 0.0 | 0.00 | 0.00 | 0.00 | 96 | 991.5 |
| 20260906054000 | 76 | 315 | 0.0 | 0.0 | 0.00 | 0.00 | 0.00 | 96 | 991.5 |
| 20260906053501 | 76 | 281 | 0.0 | 0.0 | 0.00 | 0.00 | 0.00 | 95 | 991.5 |
| 20260906053000 | 76 | 279 | 0.0 | 0.0 | 0.00 | 0.00 | 0.00 | 95 | 991.9 |
| 20260906052500 | 76 | 285 | 0.0 | 0.0 | 0.00 | 0.00 | 0.00 | 95 | 991.5 |
| 20260906052001 | 76 | 282 | 0.0 | 0.0 | 0.00 | 0.00 | 0.00 | 95 | 991.5 |
| 20260906051501 | 76 | 227 | 0.0 | 0.0 | 0.00 | 0.00 | 0.00 | 95 | 991.9 |
| 20260906051001 | 76 | 279 | 0.0 | 0.0 | 0.00 | 0.00 | 0.00 | 95 | 991.9 |
| 20260906050501 | 76 | 280 | 0.0 | 0.0 | 0.00 | 0.00 | 0.00 | 95 | 991.9 |
| 20260906050000 | 76 | 248 | 0.0 | 0.0 | 0.00 | 0.00 | 0.00 | 94 | 991.9 |
| 20260906045501 | 76 | 281 | 0.0 | 0.0 | 0.00 | 0.00 | 0.00 | 94 | 991.5 |
| 20260906045001 | 76 | 280 | 0.0 | 0.0 | 0.00 | 0.00 | 0.00 | 94 | 991.5 |
| 20260906044500 | 77 | 193 | 0.0 | 0.0 | 0.00 | 0.00 | 0.00 | 95 | 991.5 |
| 20260906044000 | 76 | 272 | 0.0 | 0.0 | 0.00 | 0.00 | 0.00 | 95 | 991.5 |
| 20260906043500 | 76 | 290 | 0.0 | 0.0 | 0.00 | 0.00 | 0.00 | 95 | 991.5 |
| 20260906043000 | 76 | 279 | 0.0 | 0.0 | 0.00 | 0.00 | 0.00 | 94 | 991.5 |
| 20260906042500 | 76 | 281 | 0.0 | 0.0 | 0.00 | 0.00 | 0.00 | 94 | 991.5 |
| 20260906042000 | 76 | 280 | 0.0 | 0.0 | 0.00 | 0.00 | 0.00 | 94 | 991.5 |
| 20260906041501 | 76 | 281 | 0.0 | 0.0 | 0.00 | 0.00 | 0.00 | 94 | 991.5 |
| 20260906041001 | 76 | 276 | 0.0 | 0.0 | 0.00 | 0.00 | 0.00 | 94 | 991.9 |
| 20260906040501 | 76 | 282 | 0.0 | 0.0 | 0.00 | 0.00 | 0.00 | 94 | 991.5 |
| 20260906040000 | 77 | 304 | 0.0 | 0.0 | 0.00 | 0.00 | 0.00 | 94 | 991.5 |
| 20260906035501 | 77 | 280 | 0.0 | 0.0 | 0.00 | 0.00 | 0.00 | 94 | 991.5 |
| 20260906035000 | 77 | 286 | 0.0 | 0.0 | 0.00 | 0.00 | 0.00 | 93 | 991.5 |
| 20260906034500 | 77 | 287 | 0.0 | 0.0 | 0.00 | 0.00 | 0.00 | 93 | 991.5 |
| 20260906034001 | 77 | 280 | 0.0 | 0.0 | 0.00 | 0.00 | 0.00 | 93 | 991.9 |
| 20260906033500 | 77 | 288 | 0.0 | 0.0 | 0.00 | 0.00 | 0.00 | 93 | 991.9 |
| 20260906033003 | 77 | 288 | 0.0 | 0.0 | 0.00 | 0.00 | 0.00 | 93 | 991.9 |
| 20260906032501 | 77 | 275 | 0.0 | 0.0 | 0.00 | 0.00 | 0.00 | 92 | 991.5 |
| 20260906032000 | 77 | 272 | 0.0 | 0.0 | 0.00 | 0.00 | 0.00 | 92 | 991.5 |
| 20260906031501 | 77 | 279 | 0.0 | 0.0 | 0.00 | 0.00 | 0.00 | 92 | 991.5 |
| 20260906031000 | 77 | 281 | 0.0 | 0.0 | 0.00 | 0.00 | 0.00 | 92 | 991.5 |
| 20260906030501 | 77 | 282 | 0.0 | 0.0 | 0.00 | 0.00 | 0.00 | 92 | 991.5 |
| 20260906030001 | 77 | 282 | 0.0 | 0.0 | 0.00 | 0.00 | 0.00 | 92 | 991.5 |
| 20260906025501 | 78 | 279 | 0.0 | 0.0 | 0.00 | 0.00 | 0.00 | 91 | 991.5 |
| 20260906025000 | 78 | 290 | 0.0 | 0.0 | 0.00 | 0.00 | 0.00 | 91 | 991.5 |
| 20260906024501 | 78 | 282 | 0.0 | 0.0 | 0.00 | 0.00 | 0.00 | 91 | 991.5 |
| 20260906024000 | 78 | 278 | 0.0 | 0.0 | 0.00 | 0.00 | 0.00 | 90 | 991.5 |
| 20260906023501 | 78 | 279 | 0.0 | 0.0 | 0.00 | 0.00 | 0.00 | 90 | 991.5 |
| 20260906023001 | 78 | 287 | 0.0 | 0.0 | 0.00 | 0.00 | 0.00 | 90 | 991.5 |
| 20260906022501 | 78 | 279 | 0.0 | 0.0 | 0.00 | 0.00 | 0.00 | 90 | 991.5 |
| 20260906022000 | 78 | 277 | 0.0 | 0.0 | 0.00 | 0.00 | 0.00 | 90 | 991.5 |
| 20260906021500 | 78 | 248 | 0.0 | 0.0 | 0.00 | 0.00 | 0.00 | 90 | 991.5 |
| 20260906021001 | 78 | 274 | 0.0 | 0.0 | 0.00 | 0.00 | 0.00 | 89 | 991.5 |
| 20260906020501 | 78 | 274 | 0.0 | 0.0 | 0.00 | 0.00 | 0.00 | 89 | 991.5 |
| 20260906020000 | 79 | 279 | 0.0 | 0.0 | 0.00 | 0.00 | 0.00 | 88 | 991.5 |
| 20260906015501 | 79 | 284 | 0.0 | 0.0 | 0.00 | 0.00 | 0.00 | 88 | 991.2 |
| 20260906015001 | 79 | 276 | 0.0 | 0.0 | 0.00 | 0.00 | 0.00 | 88 | 991.2 |
| 20260906014501 | 79 | 275 | 0.0 | 0.0 | 0.00 | 0.00 | 0.00 | 88 | 991.2 |
| 20260906014001 | 79 | 279 | 0.0 | 0.0 | 0.00 | 0.00 | 0.00 | 88 | 990.9 |
| 20260906013501 | 80 | 278 | 0.0 | 0.0 | 0.00 | 0.00 | 0.00 | 88 | 990.9 |
| 20260906013000 | 80 | 273 | 0.0 | 0.0 | 0.00 | 0.00 | 0.00 | 88 | 990.9 |
| 20260906012501 | 80 | 236 | 0.0 | 0.0 | 0.00 | 0.00 | 0.00 | 88 | 990.5 |
| 20260906012000 | 80 | 287 | 0.0 | 0.0 | 0.00 | 0.00 | 0.00 | 87 | 990.5 |
| 20260906011500 | 80 | 274 | 0.0 | 0.0 | 0.00 | 0.00 | 0.00 | 87 | 990.2 |
| 20260906011000 | 80 | 285 | 0.0 | 0.0 | 0.00 | 0.00 | 0.00 | 87 | 990.2 |
| 20260906010500 | 81 | 280 | 0.0 | 0.0 | 0.00 | 0.00 | 0.00 | 87 | 990.2 |
| 20260906010001 | 81 | 276 | 0.0 | 0.0 | 0.00 | 0.00 | 0.00 | 86 | 990.2 |
| 20260906005501 | 81 | 277 | 0.0 | 0.0 | 0.00 | 0.00 | 0.00 | 86 | 990.2 |
| 20260906005001 | 81 | 274 | 0.0 | 0.0 | 0.00 | 0.00 | 0.00 | 85 | 990.2 |
| 20260906004501 | 82 | 292 | 0.0 | 0.0 | 0.00 | 0.00 | 0.00 | 85 | 990.2 |
| 20260906004001 | 82 | 268 | 0.0 | 0.0 | 0.00 | 0.00 | 0.00 | 85 | 990.2 |
| 20260906003501 | 82 | 248 | 0.0 | 0.0 | 0.00 | 0.00 | 0.00 | 84 | 990.2 |
| 20260906003000 | 82 | 279 | 0.0 | 0.0 | 0.00 | 0.00 | 0.00 | 83 | 990.2 |
| 20260906002501 | 83 | 272 | 0.0 | 0.0 | 0.00 | 0.00 | 0.00 | 82 | 989.8 |
| 20260906002001 | 83 | 278 | 0.0 | 0.0 | 0.00 | 0.00 | 0.00 | 82 | 990.2 |
| 20260906001501 | 84 | 290 | 0.0 | 0.0 | 0.00 | 0.00 | 0.00 | 81 | 990.2 |
| 20260906001001 | 84 | 286 | 0.0 | 0.0 | 0.00 | 0.00 | 0.00 | 80 | 990.2 |
| 20260906000501 | 84 | 283 | 0.0 | 0.0 | 0.00 | 0.00 | 0.00 | 80 | 990.2 |
| 20260906000000 | 84 | 188 | 0.0 | 0.0 | 0.00 | 0.00 | 0.00 | 80 | 990.2 |
| 20260905235501 | 84 | 227 | 0.0 | 0.0 | 0.00 | 0.00 | 0.00 | 80 | 990.2 |
| 20260905235000 | 85 | 277 | 0.0 | 2.6 | 0.00 | 0.00 | 0.00 | 79 | 990.5 |
| 20260905234501 | 85 | 224 | 0.0 | 0.0 | 0.00 | 0.00 | 0.00 | 79 | 990.5 |
| 20260905234000 | 85 | 311 | 0.0 | 0.0 | 0.00 | 0.00 | 0.00 | 79 | 990.5 |
| 20260905233500 | 86 | 282 | 0.0 | 0.0 | 0.00 | 0.00 | 0.00 | 78 | 990.5 |
| 20260905233000 | 86 | 317 | 0.0 | 0.0 | 0.00 | 0.00 | 0.00 | 78 | 990.5 |
| 20260905232501 | 86 | 287 | 0.0 | 0.0 | 0.00 | 0.00 | 0.00 | 77 | 990.5 |
| 20260905232001 | 87 | 290 | 0.0 | 0.0 | 0.00 | 0.00 | 0.00 | 76 | 990.2 |
| 20260905231501 | 87 | 186 | 2.6 | 2.6 | 0.00 | 0.00 | 0.00 | 75 | 990.2 |
| 20260905231001 | 88 | 62 | 0.9 | 0.9 | 0.00 | 0.00 | 0.00 | 76 | 990.2 |
| 20260905230501 | 88 | 319 | 0.0 | 0.0 | 0.00 | 0.00 | 0.00 | 76 | 990.2 |
| 20260905230000 | 88 | 36 | 0.0 | 0.0 | 0.00 | 0.00 | 0.00 | 75 | 990.2 |
| 20260905225500 | 89 | 7 | 0.0 | 1.7 | 0.00 | 0.00 | 0.00 | 74 | 990.2 |
| 20260905225001 | 89 | 270 | 0.0 | 1.7 | 0.00 | 0.00 | 0.00 | 73 | 990.2 |
| 20260905224501 | 89 | 343 | 0.0 | 1.7 | 0.00 | 0.00 | 0.00 | 73 | 989.8 |
| 20260905224001 | 90 | 19 | 0.9 | 4.3 | 0.00 | 0.00 | 0.00 | 72 | 989.8 |
| 20260905223500 | 90 | 19 | 0.9 | 4.3 | 0.00 | 0.00 | 0.00 | 72 | 989.8 |
| 20260905223000 | 90 | 215 | 0.0 | 0.0 | 0.00 | 0.00 | 0.00 | 71 | 989.8 |
| 20260905222501 | 90 | 215 | 0.0 | 0.0 | 0.00 | 0.00 | 0.00 | 71 | 989.8 |
| 20260905222001 | 88 | 287 | 0.0 | 0.0 | 0.00 | 0.00 | 0.00 | 67 | 992.6 |
| 20260905221501 | 88 | 287 | 0.0 | 0.0 | 0.00 | 0.00 | 0.00 | 67 | 992.6 |
| 20260905221001 | 88 | 287 | 0.0 | 0.0 | 0.00 | 0.00 | 0.00 | 67 | 992.6 |
| 20260905220501 | 88 | 287 | 0.0 | 0.0 | 0.00 | 0.00 | 0.00 | 67 | 992.6 |
| 20260905220000 | 88 | 287 | 0.0 | 0.0 | 0.00 | 0.00 | 0.00 | 67 | 992.6 |
| 20260905215501 | 88 | 287 | 0.0 | 0.0 | 0.00 | 0.00 | 0.00 | 67 | 992.6 |
| 20260905215000 | 88 | 287 | 0.0 | 0.0 | 0.00 | 0.00 | 0.00 | 67 | 992.6 |
| 20260905214500 | 88 | 287 | 0.0 | 0.0 | 0.00 | 0.00 | 0.00 | 67 | 992.6 |
| 20260905214001 | 88 | 287 | 0.0 | 0.0 | 0.00 | 0.00 | 0.00 | 67 | 992.6 |
| 20260905213500 | 88 | 287 | 0.0 | 0.0 | 0.00 | 0.00 | 0.00 | 67 | 992.6 |
| 20260905213001 | 88 | 287 | 0.0 | 0.0 | 0.00 | 0.00 | 0.00 | 67 | 992.6 |
| 20260905212501 | 88 | 287 | 0.0 | 0.0 | 0.00 | 0.00 | 0.00 | 67 | 992.6 |
| 20260905212001 | 88 | 287 | 0.0 | 0.0 | 0.00 | 0.00 | 0.00 | 67 | 992.6 |
| 20260905211501 | 88 | 287 | 0.0 | 0.0 | 0.00 | 0.00 | 0.00 | 67 | 992.6 |
| 20260905211001 | 88 | 287 | 0.0 | 0.0 | 0.00 | 0.00 | 0.00 | 67 | 992.6 |
| 20260905210501 | 88 | 287 | 0.0 | 0.0 | 0.00 | 0.00 | 0.00 | 67 | 992.6 |
| 20260905210000 | 88 | 287 | 0.0 | 0.0 | 0.00 | 0.00 | 0.00 | 67 | 992.6 |
| 20260905205500 | 88 | 287 | 0.0 | 0.0 | 0.00 | 0.00 | 0.00 | 67 | 992.6 |
| 20260905205000 | 88 | 287 | 0.0 | 0.0 | 0.00 | 0.00 | 0.00 | 67 | 992.6 |
| 20260905204500 | 88 | 287 | 0.0 | 0.0 | 0.00 | 0.00 | 0.00 | 67 | 992.6 |
| 20260905204001 | 88 | 287 | 0.0 | 0.0 | 0.00 | 0.00 | 0.00 | 67 | 992.6 |
| 20260905203501 | 88 | 287 | 0.0 | 0.0 | 0.00 | 0.00 | 0.00 | 67 | 992.6 |
| 20260905203001 | 88 | 287 | 0.0 | 0.0 | 0.00 | 0.00 | 0.00 | 67 | 992.6 |
| 20260905202501 | 88 | 287 | 0.0 | 0.0 | 0.00 | 0.00 | 0.00 | 67 | 992.6 |
| 20260905202001 | 88 | 287 | 0.0 | 0.0 | 0.00 | 0.00 | 0.00 | 67 | 992.6 |
| 20260905201501 | 88 | 287 | 0.0 | 0.0 | 0.00 | 0.00 | 0.00 | 67 | 992.6 |
| 20260905201000 | 88 | 287 | 0.0 | 0.0 | 0.00 | 0.00 | 0.00 | 67 | 992.6 |
| 20260905200501 | 88 | 287 | 0.0 | 0.0 | 0.00 | 0.00 | 0.00 | 67 | 992.6 |
| 20260905200001 | 88 | 287 | 0.0 | 0.0 | 0.00 | 0.00 | 0.00 | 67 | 992.6 |
| 20260905195501 | 88 | 287 | 0.0 | 0.0 | 0.00 | 0.00 | 0.00 | 67 | 992.6 |
| 20260905195001 | 88 | 287 | 0.0 | 0.0 | 0.00 | 0.00 | 0.00 | 67 | 992.6 |
| 20260905194501 | 88 | 287 | 0.0 | 0.0 | 0.00 | 0.00 | 0.00 | 67 | 992.6 |
| 20260905194001 | 88 | 287 | 0.0 | 0.0 | 0.00 | 0.00 | 0.00 | 67 | 992.6 |
| 20260905193500 | 88 | 287 | 0.0 | 0.0 | 0.00 | 0.00 | 0.00 | 67 | 992.6 |
| 20260905193000 | 88 | 287 | 0.0 | 0.0 | 0.00 | 0.00 | 0.00 | 67 | 992.6 |
| 20260905192501 | 88 | 287 | 0.0 | 0.0 | 0.00 | 0.00 | 0.00 | 67 | 992.6 |
| 20260905192001 | 88 | 287 | 0.0 | 0.0 | 0.00 | 0.00 | 0.00 | 67 | 992.6 |
| 20260905191501 | 88 | 287 | 0.0 | 0.0 | 0.00 | 0.00 | 0.00 | 67 | 992.6 |
| 20260905191000 | 88 | 287 | 0.0 | 0.0 | 0.00 | 0.00 | 0.00 | 67 | 992.6 |
| 20260905190501 | 88 | 287 | 0.0 | 0.0 | 0.00 | 0.00 | 0.00 | 67 | 992.6 |
| 20260905190001 | 88 | 287 | 0.0 | 0.0 | 0.00 | 0.00 | 0.00 | 67 | 992.6 |
| 20260905185501 | 88 | 287 | 0.0 | 0.0 | 0.00 | 0.00 | 0.00 | 67 | 992.6 |
| 20260905185006 | 88 | 287 | 0.0 | 0.0 | 0.00 | 0.00 | 0.00 | 67 | 992.6 |
| 20260905184500 | 88 | 287 | 0.0 | 0.0 | 0.00 | 0.00 | 0.00 | 67 | 992.6 |
| 20260905184001 | 88 | 287 | 0.0 | 0.0 | 0.00 | 0.00 | 0.00 | 67 | 992.6 |
| 20260905183501 | 88 | 287 | 0.0 | 0.0 | 0.00 | 0.00 | 0.00 | 67 | 992.6 |
| 20260905183001 | 88 | 287 | 0.0 | 0.0 | 0.00 | 0.00 | 0.00 | 67 | 992.6 |
| 20260905182500 | 88 | 287 | 0.0 | 0.0 | 0.00 | 0.00 | 0.00 | 67 | 992.6 |
| 20260905182001 | 88 | 287 | 0.0 | 0.0 | 0.00 | 0.00 | 0.00 | 67 | 992.6 |
| 20260905181500 | 88 | 287 | 0.0 | 0.0 | 0.00 | 0.00 | 0.00 | 67 | 992.6 |
| 20260905181000 | 88 | 287 | 0.0 | 0.0 | 0.00 | 0.00 | 0.00 | 67 | 992.6 |
| 20260905180500 | 88 | 287 | 0.0 | 0.0 | 0.00 | 0.00 | 0.00 | 67 | 992.6 |
| 20260905180000 | 88 | 287 | 0.0 | 0.0 | 0.00 | 0.00 | 0.00 | 67 | 992.6 |
| 20260905175501 | 88 | 287 | 0.0 | 0.0 | 0.00 | 0.00 | 0.00 | 67 | 992.6 |
| 20260905175001 | 88 | 287 | 0.0 | 0.0 | 0.00 | 0.00 | 0.00 | 67 | 992.6 |
| 20260905174500 | 88 | 287 | 0.0 | 0.0 | 0.00 | 0.00 | 0.00 | 67 | 992.6 |
| 20260905174006 | 88 | 287 | 0.0 | 0.0 | 0.00 | 0.00 | 0.00 | 67 | 992.6 |
| 20260905173501 | 88 | 287 | 0.0 | 0.0 | 0.00 | 0.00 | 0.00 | 67 | 992.6 |
| 20260905173000 | 88 | 287 | 0.0 | 0.0 | 0.00 | 0.00 | 0.00 | 67 | 992.6 |
| 20260905172501 | 88 | 287 | 0.0 | 0.0 | 0.00 | 0.00 | 0.00 | 67 | 992.6 |
| 20260905172001 | 88 | 287 | 0.0 | 0.0 | 0.00 | 0.00 | 0.00 | 67 | 992.6 |
| 20260905171501 | 88 | 287 | 0.0 | 0.0 | 0.00 | 0.00 | 0.00 | 67 | 992.6 |
| 20260905171001 | 88 | 287 | 0.0 | 0.0 | 0.00 | 0.00 | 0.00 | 67 | 992.6 |
| 20260905170501 | 88 | 287 | 0.0 | 0.0 | 0.00 | 0.00 | 0.00 | 67 | 992.6 |
| 20260905170000 | 88 | 287 | 0.0 | 0.0 | 0.00 | 0.00 | 0.00 | 67 | 992.6 |
| 20260905165501 | 88 | 287 | 0.0 | 0.0 | 0.00 | 0.00 | 0.00 | 67 | 992.6 |
| 20260905165001 | 88 | 287 | 0.0 | 0.0 | 0.00 | 0.00 | 0.00 | 67 | 992.6 |
| 20260905164501 | 88 | 287 | 0.0 | 0.0 | 0.00 | 0.00 | 0.00 | 67 | 992.6 |
| 20260905164000 | 88 | 287 | 0.0 | 0.0 | 0.00 | 0.00 | 0.00 | 67 | 992.6 |
| 20260905163500 | 88 | 287 | 0.0 | 0.0 | 0.00 | 0.00 | 0.00 | 67 | 992.6 |
| 20260905163001 | 88 | 287 | 0.0 | 0.0 | 0.00 | 0.00 | 0.00 | 67 | 992.6 |
| 20260905162501 | 88 | 287 | 0.0 | 0.0 | 0.00 | 0.00 | 0.00 | 67 | 992.6 |
| 20260905162001 | 88 | 287 | 0.0 | 0.0 | 0.00 | 0.00 | 0.00 | 67 | 992.6 |
| 20260905161500 | 88 | 287 | 0.0 | 0.0 | 0.00 | 0.00 | 0.00 | 67 | 992.6 |
| 20260905161001 | 88 | 287 | 0.0 | 0.0 | 0.00 | 0.00 | 0.00 | 67 | 992.6 |
| 20260905160501 | 88 | 287 | 0.0 | 0.0 | 0.00 | 0.00 | 0.00 | 67 | 992.6 |
| 20260905160001 | 88 | 287 | 0.0 | 0.0 | 0.00 | 0.00 | 0.00 | 67 | 992.6 |
| 20260905155500 | 88 | 287 | 0.0 | 0.0 | 0.00 | 0.00 | 0.00 | 67 | 992.6 |
| 20260905155001 | 88 | 287 | 0.0 | 0.0 | 0.00 | 0.00 | 0.00 | 67 | 992.6 |
| 20260905154500 | 88 | 287 | 0.0 | 0.0 | 0.00 | 0.00 | 0.00 | 67 | 992.6 |
| 20260905154000 | 88 | 287 | 0.0 | 0.0 | 0.00 | 0.00 | 0.00 | 67 | 992.6 |
| 20260905153501 | 88 | 287 | 0.0 | 0.0 | 0.00 | 0.00 | 0.00 | 67 | 992.6 |
| 20260905153000 | 88 | 287 | 0.0 | 0.0 | 0.00 | 0.00 | 0.00 | 67 | 992.6 |
| 20260905152501 | 88 | 287 | 0.0 | 0.0 | 0.00 | 0.00 | 0.00 | 67 | 992.6 |
| 20260905152001 | 88 | 287 | 0.0 | 0.0 | 0.00 | 0.00 | 0.00 | 67 | 992.6 |
| 20260905151500 | 88 | 287 | 0.0 | 0.0 | 0.00 | 0.00 | 0.00 | 67 | 992.6 |
| 20260905151001 | 88 | 287 | 0.0 | 0.0 | 0.00 | 0.00 | 0.00 | 67 | 992.6 |
| 20260905150500 | 88 | 287 | 0.0 | 0.0 | 0.00 | 0.00 | 0.00 | 67 | 992.6 |
| 20260905150000 | 88 | 287 | 0.0 | 0.0 | 0.00 | 0.00 | 0.00 | 67 | 992.6 |
| 20260905145501 | 88 | 287 | 0.0 | 0.0 | 0.00 | 0.00 | 0.00 | 67 | 992.6 |
| 20260905145000 | 88 | 287 | 0.0 | 0.0 | 0.00 | 0.00 | 0.00 | 67 | 992.6 |
| 20260905144500 | 88 | 287 | 0.0 | 0.0 | 0.00 | 0.00 | 0.00 | 67 | 992.6 |
| 20260905144001 | 88 | 287 | 0.0 | 0.0 | 0.00 | 0.00 | 0.00 | 67 | 992.6 |
| 20260905143501 | 88 | 287 | 0.0 | 0.0 | 0.00 | 0.00 | 0.00 | 67 | 992.6 |
| 20260905143000 | 88 | 287 | 0.0 | 0.0 | 0.00 | 0.00 | 0.00 | 67 | 992.6 |
| 20260905142501 | 88 | 287 | 0.0 | 0.0 | 0.00 | 0.00 | 0.00 | 67 | 992.6 |
| 20260905142001 | 88 | 287 | 0.0 | 0.0 | 0.00 | 0.00 | 0.00 | 67 | 992.6 |
| 20260905141500 | 88 | 287 | 0.0 | 0.0 | 0.00 | 0.00 | 0.00 | 67 | 992.6 |
| 20260905141001 | 88 | 287 | 0.0 | 0.0 | 0.00 | 0.00 | 0.00 | 67 | 992.6 |
| 20260905140500 | 88 | 287 | 0.0 | 0.0 | 0.00 | 0.00 | 0.00 | 67 | 992.6 |
| 20260905140001 | 88 | 287 | 0.0 | 0.0 | 0.00 | 0.00 | 0.00 | 67 | 992.6 |
| 20260905135501 | 88 | 287 | 0.0 | 0.0 | 0.00 | 0.00 | 0.00 | 67 | 992.6 |
| 20260905135000 | 88 | 287 | 0.0 | 0.0 | 0.00 | 0.00 | 0.00 | 67 | 992.6 |
| 20260905134500 | 88 | 287 | 0.0 | 0.0 | 0.00 | 0.00 | 0.00 | 67 | 992.6 |
| 20260905134001 | 88 | 287 | 0.0 | 0.0 | 0.00 | 0.00 | 0.00 | 67 | 992.6 |
| 20260905133500 | 88 | 287 | 0.0 | 0.0 | 0.00 | 0.00 | 0.00 | 67 | 992.6 |
| 20260905133000 | 88 | 287 | 0.0 | 0.0 | 0.00 | 0.00 | 0.00 | 67 | 992.6 |
| 20260905132501 | 88 | 287 | 0.0 | 0.0 | 0.00 | 0.00 | 0.00 | 67 | 992.6 |
| 20260905132000 | 88 | 287 | 0.0 | 0.0 | 0.00 | 0.00 | 0.00 | 67 | 992.6 |
| 20260905131501 | 88 | 287 | 0.0 | 0.0 | 0.00 | 0.00 | 0.00 | 67 | 992.6 |
| 20260905131001 | 88 | 287 | 0.0 | 0.0 | 0.00 | 0.00 | 0.00 | 67 | 992.6 |
| 20260905130501 | 88 | 287 | 0.0 | 0.0 | 0.00 | 0.00 | 0.00 | 67 | 992.6 |
| 20260905130001 | 88 | 287 | 0.0 | 0.0 | 0.00 | 0.00 | 0.00 | 67 | 992.6 |
| 20260905125500 | 88 | 287 | 0.0 | 0.0 | 0.00 | 0.00 | 0.00 | 67 | 992.6 |
| 20260905125001 | 88 | 287 | 0.0 | 0.0 | 0.00 | 0.00 | 0.00 | 67 | 992.6 |
| 20260905124501 | 88 | 287 | 0.0 | 0.0 | 0.00 | 0.00 | 0.00 | 67 | 992.6 |
| 20260905124001 | 88 | 287 | 0.0 | 0.0 | 0.00 | 0.00 | 0.00 | 67 | 992.6 |
| 20260905123501 | 88 | 287 | 0.0 | 0.0 | 0.00 | 0.00 | 0.00 | 67 | 992.6 |
| 20260905123001 | 88 | 287 | 0.0 | 0.0 | 0.00 | 0.00 | 0.00 | 67 | 992.6 |
| 20260905122501 | 88 | 287 | 0.0 | 0.0 | 0.00 | 0.00 | 0.00 | 67 | 992.6 |
| 20260905122001 | 88 | 287 | 0.0 | 0.0 | 0.00 | 0.00 | 0.00 | 67 | 992.6 |
| 20260905121501 | 88 | 287 | 0.0 | 0.0 | 0.00 | 0.00 | 0.00 | 67 | 992.6 |
| 20260905121001 | 88 | 287 | 0.0 | 0.0 | 0.00 | 0.00 | 0.00 | 67 | 992.6 |
| 20260905120500 | 88 | 287 | 0.0 | 0.0 | 0.00 | 0.00 | 0.00 | 67 | 992.6 |
| 20260905120001 | 88 | 287 | 0.0 | 0.0 | 0.00 | 0.00 | 0.00 | 67 | 992.6 |